Weather History for Fredericksburg, TX

Change the Weather History Date:

Sunday, October 7, 2012

  Actual Average (KSAT) Record (KSAT)
Temperature  
Mean Temperature 48 °F 74 °F  
Max Temperature 52 °F 85 °F 99 °F (1937)
Min Temperature 43 °F 63 °F 43 °F (1964)
Degree Days  
Heating Degree Days 18 0  
Month to date heating degree days 0  
Since 1 July heating degree days 2  
Cooling Degree Days 0 9  
Month to date cooling degree days 67  
Year to date cooling degree days 2901  
Moisture  
Dew Point 44 °F    
Average Humidity 86    
Maximum Humidity 98    
Minimum Humidity 70    
Precipitation  
Precipitation 0.00 in 0.13 in 3.90 in (1994)
Month to date precipitation 0.86  
Year to date precipitation 24.83  
Snow  
Snow 0.00 in - - ()
Month to date snowfall  
Since 1 July snowfall  
Since 1 September snowfall  
Snow Depth -    
Sea Level Pressure  
Sea Level Pressure 30.20 in    
Wind  
Wind Speed 10 mph (NNE)    
Max Wind Speed 15 mph    
Max Gust Speed 21 mph    
Visibility 10 miles    
Events Rain    
T = Trace of Precipitation, MM = Missing Value Source: NWS Daily Summary

Daily Weather History Graph

Daily Weather History Graph

Search for Another Location

Airport:

Trip Planner

Search our weather history database for the weather conditions in past years. The results will help you decide how hot, cold, wet, or windy it might be!

Date:

Astronomy

Oct. 07, 2012 Rise Set
Actual Time 7:32 AM CDT 7:13 PM CDT
Civil Twilight 7:08 AM CDT 7:37 PM CDT
Nautical Twilight 6:41 AM CDT 8:04 PM CDT
Astronomical Twilight 6:13 AM CDT 8:32 PM CDT
Moon No Moon Rise 1:54 PM CDT (10/7)
Length of Visible Light 12h 28m
Length of Day
11h 40m
Waning Gibbous, 56% of the Moon is Illuminated
Oct 7
Waning Gibbous
Oct 8
Last Quarter
Oct 15
New
Oct 21
First Quarter
Oct 29
Full

Hourly Weather History & Observations

Time (CDT) Temp. Windchill Dew Point Humidity Pressure Visibility Wind Dir Wind Speed Gust Speed Precip Events Conditions
12:15 AM 50.2 °F - 47.7 °F 91% 30.18 in 10.0 mi NNE 10.4 mph 17.3 mph N/A   Overcast
12:35 AM 49.6 °F - 47.5 °F 92% 30.18 in 10.0 mi NNE 11.5 mph 17.3 mph N/A   Overcast
12:55 AM 48.9 °F - 47.5 °F 95% 30.18 in 10.0 mi NNE 15.0 mph - N/A   Overcast
1:15 AM 48.4 °F - 46.9 °F 95% 30.18 in 10.0 mi NE 10.4 mph 17.3 mph N/A   Overcast
1:35 AM 48.4 °F - 46.9 °F 95% 30.18 in 10.0 mi NNE 11.5 mph - N/A   Overcast
1:55 AM 47.8 °F - 46.9 °F 97% 30.18 in 10.0 mi NNE 10.4 mph 18.4 mph N/A   Overcast
2:15 AM 47.5 °F - 46.4 °F 96% 30.18 in 10.0 mi NE 15.0 mph - N/A   Overcast
2:35 AM 47.3 °F - 46.4 °F 97% 30.18 in 10.0 mi NNE 11.5 mph 16.1 mph N/A   Overcast
2:55 AM 47.1 °F - 46.6 °F 98% 30.19 in 5.0 mi NNE 12.7 mph 17.3 mph N/A   Overcast
3:15 AM 46.6 °F - 46.0 °F 98% 30.19 in 10.0 mi NNE 11.5 mph 19.6 mph N/A   Overcast
3:35 AM 46.6 °F - 45.7 °F 97% 30.19 in 10.0 mi NNE 12.7 mph 18.4 mph N/A   Overcast
3:55 AM 46.4 °F 41.1 °F 45.5 °F 97% 30.19 in 10.0 mi NE 11.5 mph - N/A   Overcast
4:15 AM 46.4 °F 40.7 °F 45.7 °F 97% 30.18 in 10.0 mi NNE 12.7 mph 16.1 mph N/A   Overcast
4:35 AM 46.4 °F 41.5 °F 45.0 °F 95% 30.18 in 10.0 mi NNE 10.4 mph 17.3 mph N/A   Overcast
4:55 AM 46.0 °F 41.0 °F 45.0 °F 96% 30.19 in 10.0 mi NNE 10.4 mph - N/A   Overcast
5:15 AM 45.9 °F 40.0 °F 44.6 °F 95% 30.19 in 10.0 mi NNE 12.7 mph 20.7 mph N/A   Overcast
5:35 AM 45.9 °F 39.7 °F 44.6 °F 95% 30.19 in 10.0 mi NNE 13.8 mph 19.6 mph N/A   Overcast
5:55 AM 45.7 °F 40.6 °F 44.6 °F 96% 30.20 in 10.0 mi NNE 10.4 mph - N/A   Overcast
6:15 AM 45.7 °F 40.6 °F 43.9 °F 93% 30.20 in 10.0 mi NE 10.4 mph - N/A   Overcast
6:35 AM 45.5 °F 39.9 °F 43.7 °F 93% 30.21 in 10.0 mi North 11.5 mph 19.6 mph N/A   Overcast
6:55 AM 45.5 °F 40.8 °F 43.7 °F 93% 30.21 in 10.0 mi NNE 9.2 mph - N/A   Overcast
7:15 AM 45.5 °F 39.2 °F 43.7 °F 93% 30.22 in 10.0 mi NNE 13.8 mph 18.4 mph N/A   Overcast
7:35 AM 44.8 °F 38.7 °F 43.7 °F 96% 30.22 in 10.0 mi North 12.7 mph 17.3 mph N/A   Overcast
7:55 AM 44.6 °F 40.2 °F 43.2 °F 95% 30.23 in 10.0 mi NNE 8.1 mph - N/A   Overcast
8:15 AM 44.6 °F 39.2 °F 42.8 °F 93% 30.23 in 10.0 mi NNE 10.4 mph - N/A Rain Rain
8:55 AM 43.7 °F 39.1 °F 43.0 °F 97% 30.24 in 10.0 mi NNE 8.1 mph - N/A   Overcast
9:15 AM 43.3 °F 38.6 °F 42.8 °F 98% 30.24 in 10.0 mi NNE 8.1 mph - N/A Rain Rain
9:35 AM 43.7 °F 39.1 °F 43.0 °F 97% 30.24 in 10.0 mi NNE 8.1 mph - N/A   Overcast
9:55 AM 44.4 °F 39.0 °F 42.6 °F 93% 30.24 in 10.0 mi NNE 10.4 mph 16.1 mph N/A   Overcast
10:15 AM 45.0 °F 39.3 °F 42.6 °F 91% 30.24 in 10.0 mi NNE 11.5 mph - N/A   Overcast
10:35 AM 45.0 °F 39.3 °F 41.9 °F 89% 30.24 in 10.0 mi NNE 11.5 mph - N/A   Overcast
10:55 AM 45.9 °F 39.7 °F 42.1 °F 87% 30.24 in 10.0 mi NNE 13.8 mph 18.4 mph N/A   Overcast
11:15 AM 46.0 °F 40.2 °F 41.7 °F 85% 30.24 in 10.0 mi NE 12.7 mph - N/A   Overcast
11:35 AM 46.9 °F - 41.5 °F 81% 30.24 in 10.0 mi NNE 8.1 mph - N/A   Overcast
11:55 AM 47.8 °F - 41.7 °F 79% 30.23 in 10.0 mi NNE 9.2 mph - N/A   Overcast
12:15 PM 47.8 °F - 41.5 °F 79% 30.23 in 10.0 mi NNE 9.2 mph 16.1 mph N/A   Overcast
12:35 PM 48.4 °F - 41.4 °F 77% 30.22 in 10.0 mi NNE 11.5 mph - N/A   Overcast
12:55 PM 49.1 °F - 41.9 °F 76% 30.21 in 10.0 mi NNE 9.2 mph 16.1 mph N/A   Overcast
1:15 PM 49.6 °F - 41.9 °F 75% 30.21 in 10.0 mi NE 6.9 mph - N/A   Overcast
1:35 PM 50.4 °F - 42.3 °F 74% 30.20 in 10.0 mi NNE 8.1 mph - N/A   Overcast
1:55 PM 50.4 °F - 41.7 °F 72% 30.19 in 10.0 mi NNE 5.8 mph - N/A   Overcast
2:15 PM 50.9 °F - 42.4 °F 73% 30.18 in 10.0 mi ENE 6.9 mph - N/A   Overcast
2:35 PM 51.1 °F - 42.1 °F 71% 30.17 in 10.0 mi NE 5.8 mph - N/A   Overcast
2:55 PM 51.4 °F - 42.6 °F 72% 30.16 in 10.0 mi NNE 10.4 mph - N/A   Overcast
3:15 PM 51.1 °F - 42.3 °F 72% 30.17 in 10.0 mi NE 9.2 mph - N/A   Overcast
3:35 PM 52.0 °F - 42.6 °F 70% 30.16 in 10.0 mi NE 5.8 mph - N/A   Overcast
3:55 PM 52.2 °F - 43.2 °F 71% 30.16 in 10.0 mi NE 6.9 mph - N/A   Overcast
4:15 PM 52.0 °F - 42.8 °F 71% 30.16 in 10.0 mi NNE 5.8 mph - N/A   Overcast
4:35 PM 52.0 °F - 42.8 °F 71% 30.16 in 10.0 mi NE 6.9 mph - N/A   Overcast
4:55 PM 52.0 °F - 43.0 °F 71% 30.15 in 10.0 mi NNE 9.2 mph - N/A   Overcast
5:15 PM 51.6 °F - 42.8 °F 72% 30.15 in 10.0 mi North 9.2 mph - N/A   Overcast
5:35 PM 51.3 °F - 43.0 °F 73% 30.16 in 10.0 mi North 5.8 mph - N/A   Overcast
5:55 PM 51.3 °F - 43.0 °F 73% 30.15 in 10.0 mi NNE 9.2 mph - N/A   Overcast
6:15 PM 50.9 °F - 42.8 °F 74% 30.16 in 10.0 mi NNE 8.1 mph - N/A   Overcast
6:35 PM 50.9 °F - 42.8 °F 74% 30.16 in 10.0 mi NNE 6.9 mph - N/A   Overcast
6:55 PM 50.5 °F - 42.3 °F 73% 30.16 in 10.0 mi NNE 9.2 mph - N/A   Overcast
7:15 PM 50.2 °F - 42.1 °F 74% 30.18 in 10.0 mi NNE 9.2 mph - N/A   Overcast
7:55 PM 49.5 °F - 42.4 °F 77% 30.18 in 10.0 mi North 10.4 mph - N/A   Overcast
8:15 PM 49.1 °F - 42.4 °F 78% 30.18 in 10.0 mi NNE 9.2 mph - N/A   Overcast
8:35 PM 48.6 °F - 43.0 °F 81% 30.20 in 10.0 mi NE 6.9 mph - N/A Rain Light Rain
8:55 PM 48.6 °F - 42.4 °F 79% 30.21 in 10.0 mi NE 11.5 mph - N/A   Overcast
9:15 PM 46.9 °F - 43.3 °F 87% 30.22 in 10.0 mi NNE 9.2 mph - N/A   Overcast
9:35 PM 46.8 °F - 43.2 °F 87% 30.22 in 10.0 mi NE 6.9 mph - N/A   Overcast
9:55 PM 46.4 °F 41.1 °F 43.2 °F 88% 30.22 in 10.0 mi NE 11.5 mph - N/A   Overcast
10:15 PM 46.2 °F 42.2 °F 43.7 °F 91% 30.22 in 10.0 mi North 8.1 mph - N/A   Overcast
10:35 PM 45.7 °F 42.0 °F 44.6 °F 96% 30.22 in 10.0 mi NNE 6.9 mph - N/A   Overcast
10:55 PM 45.5 °F 41.3 °F 44.8 °F 97% 30.21 in 7.0 mi NNE 8.1 mph - N/A Rain Light Rain
11:15 PM 45.1 °F 41.4 °F 44.6 °F 98% 30.21 in 10.0 mi NE 6.9 mph - N/A   Overcast
11:35 PM 45.3 °F 42.3 °F 44.6 °F 97% 30.21 in 10.0 mi NE 5.8 mph - N/A   Overcast
11:55 PM 45.0 °F 41.2 °F 43.9 °F 96% 30.21 in 10.0 mi NNE 6.9 mph - N/A   Overcast